Погода Уля

Погода Уля : погода сейчас, прогноз погоды и архив. Всё, что Вы хотите узнать о погоде Уля!

Поиск расширенной информации на нашем сайте:

Другие новости

Новости СМИ2

Главная страница сайта

Новости сайта

03.07.2017

Напоминаем, что на нашем специализированном сайте Метеоцентр.Азия вы можете получить высокодетализированные автоматические прогнозы погоды по пунктам России, СНГ и мира в авиационном формате (включающие направление и скорость ветра, видимость, явления погоды, количество и форму облачности, нижнюю и верхнюю границу облачности).


Погода Уля - сегодня

Время (UTC), дата Ветер
(°,м/с) 
Видим.   Явления Облачность Т
(°С)
Тd
(°С)
f(%) Тe
(°С)
Pmin
(гПа)
dP
(гПа)
Po
(мм)
O2
(г/м3)
Тmin Tmax R s Состояние
почвы
18 15.10.17 290 (З) 20000 м    1/0 верхняя 
[Ci fib]
-5.1 -10.5 66 -10  1012.3  0.1  759  313           
21 15.10.17 290 (З) 10-12{12}  20000 м    3/0 верхняя 
[Ci fib]
-6.4 -12.4 62 -13  1012  -0.3  759  314  -6.7        замёрзшая 
00 16.10.17 340 (С) 10-12{12}  20000 м    3/0 верхняя 
[Ci fib]
-4.8 -11.5 59 -11  1011.9  -0.1  758  312           
03 16.10.17 290 (З) 10-12{12}  20000 м    3/0 верхняя 
[Ci fib]
-0.9 -9.1 54 -6  1010.8  -1.1  758  307           
06 16.10.17 320 (СЗ) 4{12}  20000 м    5/0 средняя, верхняя 
[Ac trans|Ci fib]
+0.5 -8.7 50 -2  1010.4  -0.6  757  305           
09 16.10.17 320 (СЗ) 20000 м    6/0 средняя, верхняя 
[Ac trans|Cc]
-1.9 -6.1 73 -4  1010.9  0.7  758  308    +0.8       
12 16.10.17 340 (С) <0100 м    6/1 <0100 м средняя, верхняя 
[Ac trans|Cc]
-4.2 -7.2 80 -8  1011  0.1  758  311           
15 16.10.17 290 (З) 9-10{10}  20000 м    6/0 средняя, верхняя 
[Ac trans|Cc]
-4.9 -7.7 81 -11  1010.8  -0.2  758  312           
18 16.10.17 290 (З) 10-12{12}  20000 м    6/0 средняя, верхняя 
[Ac trans|Ci fib]
-5.3 -8.2 80 -11  1011.2  0.4  758  312           
21 16.10.17 340 (С) 7{12}  20000 м    8/0 средняя, верхняя 
[Ac trans|Ci fib]
-4.2 -7.6 77 -9  1011.8  0.6  758  311  -5.6        замёрзшая 
00 17.10.17 290 (З) 20000 м    8/0 средняя, верхняя 
[Ac trans|Ci fib]
-1 -4.9 75 -5  1012.8  759  308           
03 17.10.17 340 (С) 20000 м    6/0 средняя, верхняя 
[Ac trans|Ci fib]
+3.2 -1.2 73 1013.1  -0.3  759  303           
06 17.10.17 050 (СВ) 20000 м    8/0 средняя 
[Ac trans]
+4.2 +0.3 76 +2  1014  0.9  760  302           
09 17.10.17 340 (С) 20000 м    9/0 средняя 
[Ac trans]
+2.6 -1.3 75 +1  1014.9  0.9  761  304    +4.4       
12 17.10.17 340 (С) 20000 м    10/0 средняя 
[Ac trans]
+2.2 -1.5 76 +1  1016  1.1  762  305           
15 17.10.17 320 (СЗ) 20000 м    6/0 средняя 
[Ac trans]
+0.8 -4.5 68 1017.3  1.2  763  307           
18 17.10.17 320 (СЗ) 20000 м    6/0 средняя 
[Ac trans]
-1 -7.5 61 -2  1018.5  1.2  763  310           
21 17.10.17 320 (СЗ) 20000 м    4/0 верхняя 
[Ci fib]
-2.7 -8.8 63 -5  1019.6  1.1  764  312  -2.9        замёрзшая 
00 18.10.17 340 (С) 20000 м    3/0 верхняя 
[Ci fib]
-1.2 -8.3 58 -5  1020.8  1.2  765  311           
03 18.10.17 290 (З) 20000 м    ясно 
+1.7 -8.7 46 -1  1020.7  -0.1  765  307           
06 18.10.17 320 (СЗ) 20000 м    3/0 средняя 
[Ac trans]
+2 -10.7 38 +1  1021.3  0.6  766  307           
09 18.10.17 320 (СЗ) 20000 м    3/0 верхняя 
[Ci fib]
-1.8 -9.7 55 -5  1021.9  0.6  766  312    +2.3       
12 18.10.17 320 (СЗ) 20000 м    3/0 верхняя 
[Ci fib]
-2.1 -7.1 69 -4  1022.4  0.5  766  312           
15 18.10.17 320 (СЗ) 20000 м    3/0 средняя 
[Ac trans]
-5 -8.6 76 -5  1022.7  0.2  767  316           
18 18.10.17 340 (С) 20000 м    3/0 средняя 
[Ac trans]
-5.4 -8.7 78 -9  1023  0.3  767  316           
Время (UTC), дата Ветер
(°,м/с) 
Видим.   Явления Облачность Т
(°С)
Тd
(°С)
f(%) Тe
(°С)
Pmin
(гПа)
dP
(гПа)
Po
(мм)
O2
(г/м3)
Тmin Tmax R s Состояние
почвы

Для получения пояснительной информации подведите курсор к названию столбца.

ПОГОДА Уля - архив

Всё, что Вы хотите узнать о погоде Уля - удобно и подробно!

Выберите нужную дату (начиная с 1 января 2015* года) и нажмите кнопку "Найти".
Будут отображены архивные сводки погоды по пункту Уля, начиная с указанной даты.


Отображать данные в формате CSV (для использования в таблицах Excel)


Внимание! Наш архив погоды предназначен исключительно для личного некоммерческого использования в познавательных целях. Если Вам необходимы официальные справки о состоянии погоды (для производственных, юридических, коммерческих и т.п. целей), обращайтесь в органы Росгидромета.

*Примечание: данная дата относится к архиву по метеостанциям СССР (Россия, СНГ, Балтия).
Архив по метеостанциям Зарубежной Европы и Азии (кроме Китая) хранится 10 дней, по другим регионам земного шара (Китай, Африка, Америка, Австралия, Океания) - 1 день.

Уля - район местоположения метеостанции


Название, широта, долгота, высота метеостанции:
Уля 58.8°ш. 141.7°д. 4 м над ур. моря [Российская Федерация]

Дополнительная информация

В oтличие oт бoльшинства пoгoдных сайтoв мы публикуем пoдрoбную метеoинфoрмацию в детальнoм прoфессиoнальнoм фoрмате.

Характеристики температуры и влажнoсти вoздуха измеряются на высoте 2 м в тени вдали oт зданий и деревьев.
Скoрoсть ветра измеряется на высoте 10 м (на урoвне рoста челoвека скoрoсть ветра ниже в 1.5-2 раза). Если метеoстанция нахoдится в гoрoде или в лесу, тo скoрoсть ветра занижена на 2-4 м/с пo сравнению с oткрытым местoм. Скoрoсть ветра над акватoриями крупных рек и oзёр, а также на вершинах хoлмoв на 2-5 м/с выше, чем в oбычных услoвиях.
Атмoсфернoе давление в разных тoчках местнoсти мoжет значительнo oтличаться oт давления на метеoстанции, в зависимoсти oт услoвий рельефа (при пoдъёме на 10 м давление пoнижается примернo на 1 мм рт.ст.).